Retour au catalogue

OPS 4682 DEB

ActifPO
NORAD 15530·DEBRIS·🇺🇸 United States

Lancé Apr 3, 1965 depuis Vandenberg Space Force Base

Loading…

Prochains Passages (prochaines 24 heures)

TLE

FraisSource: Space-Track

Époque: Sep 12, 2026, 21:06 UTC

1 15530U 65027T   26255.87945396  .00000709  00000-0  23683-2 0  9995
2 15530  90.2910  34.9190 0033914 155.2053 358.4010 12.98741057 69037

Suivez OPS 4682 DEB en temps réel avec AllMySat

Download on the App Store